Regional Weather Roundup
Issued by NWS Sterling, VA

Home | Current Version | Previous Version | Graphics & Text | Print | Product List | Glossary On
Versions: 1 2 3 4 5 6 7 8 9 10 11 12 13 14 15 16 17 18 19 20 21 22 23 24 25 26 27 28 29 30 31 32 33 34 35 36 37 38 39 40 41 42 43 44 45 46 47 48 49 50
557
ASUS41 KLWX 250810
RWRLWX

REGIONAL WEATHER ROUNDUP
NATIONAL WEATHER SERVICE BALTIMORE MD/WASHINGTON DC
300 AM EST SAT FEB 25 2017

Note: "FAIR" indicates few or no clouds below 12,000 feet
with no significant weather and/or obstructions to visibility.
 TC=TEMPERATURE CELSIUS

 * =Non NWS site. Station does not report precipitation (e.g. rain,
    snow, etc.), thunder, or fog.

DCZ001-MDZ009-015-VAZ040>042-051-053>054-250900-
WASHINGTON METRO

CITY           SKY/WX    TMP DP  RH WIND       PRES   REMARKS
WASHINGTON NAT PTCLDY    59  57  93 S12       29.74F
DULLES         MOCLDY    62  56  80 S6        29.73F
ANDREWS AFB    CLEAR     61  57  87 S13       29.74F
FT BELVOIR     CLEAR     58  55  89 SE7       29.74F
QUANTICO       PTCLDY    54  54 100 SW7       29.75F
COLLEGE PARK*  PTCLDY    61  55  82 S8        29.74F
LEESBURG*      MOCLDY    61  61 100 MISG      29.73F
MANASSAS*        N/A     63  57  81 S6        29.74F
GAITHERSBURG*  PTCLDY    61  54  77 S9        29.78F

$$

MDZ006>007-011-014-250900-
BALTIMORE METRO

CITY           SKY/WX    TMP DP  RH WIND       PRES   REMARKS
BWI AIRPORT    PTCLDY    54  54 100 E6        29.75F
MD SCIENCE CTR   N/A     57  53  86 MISG      29.76F
MARTIN STATE   PTCLDY    55  55 100 SE6       29.78F
ANNAPOLIS      PTCLDY    54  53  97 S7        29.76F
FORT MEADE*    CLEAR     52  50  93 CALM      29.77F

$$

MDZ012-015-019>023-250900-
MARYLAND EASTERN SHORE

CITY           SKY/WX    TMP DP  RH WIND       PRES   REMARKS
OCEAN CITY     CLEAR     53  51  93 SW5       29.82F
SALISBURY      CLEAR     52  52 100 CALM      29.81F
BAY BRIDGE AP* MOCLDY    55  54  94 S8        29.77F
CAMBRIDGE*     PTCLDY    55  54  94 S8        29.80F
EASTON*        PTCLDY    60  56  87 S10       29.83F

$$

MDZ017>025-250900-
SOUTHERN MARYLAND

CITY           SKY/WX    TMP DP  RH WIND       PRES   REMARKS
PATUXENT RIVER CLEAR     61  58  90 S9        29.78F
ST INIGOES     PTCLDY    58  55  90 SE7       29.78F
LEONARDTOWN*   CLEAR     59  55  88 S5        29.79F

$$

MDZ003>005-250900-
NORTH CENTRAL MARYLAND

CITY           SKY/WX    TMP DP  RH WIND       PRES   REMARKS
FREDERICK*     PTCLDY    61  59  94 S8        29.75F
HAGERSTOWN APT PTCLDY    63  57  81 S15       29.68F
WESTMINSTER*   CLOUDY    59  57  94 S8        29.74F

$$

MDZ501>502-250900-
WESTERN MARYLAND

CITY           SKY/WX    TMP DP  RH WIND       PRES   REMARKS
OAKLAND*       CLEAR     54  45  71 S12       29.67F
CUMBERLAND*    CLEAR     59  50  72 CALM      29.69F

$$

VAZ025>031-250900-
SHENANDOAH VALLEY

CITY           SKY/WX    TMP DP  RH WIND       PRES   REMARKS
WINCHESTER*    PTCLDY    59  52  77 S9        29.70S
FRONT ROYAL*   CLOUDY    63  54  72 S6        29.68F
LURAY*         PTCLDY    61  54  77 SW8       29.70F
NEW MARKET*    PTCLDY    60  50  70 SW8       29.69F
STAUNTON*      PTCLDY    60  52  73 S8        29.74S
WAYNESBORO*    CLOUDY    61  51  70 SE6       29.73F

$$

WVZ021-048>050-054>055-250900-
EASTERN WEST VIRGINIA PANHANDLE

CITY           SKY/WX    TMP DP  RH WIND       PRES   REMARKS
MARTINSBURG    CLOUDY    61  54  77 S7        29.67F
PETERSBURG*    CLEAR     58  50  74 S6        29.68S

$$

VAZ036>039-050-250900-
CENTRAL FOOTHILLS

CITY           SKY/WX    TMP DP  RH WIND       PRES   REMARKS
CHARLOTTESVILL CLOUDY    63  56  78 SW6       29.73F
CULPEPER*      CLOUDY    63  58  85 CALM      29.74F
ORANGE*        CLOUDY    63  55  77 S6        29.74F
GORDONSVILLE*  CLOUDY    63  58  85 SW5       29.73F
WARRENTON*     MOCLDY    64  55  74 S6        29.73F

$$

VAZ055>057-250900-
NORTH AND CENTRAL PIEDMONT

CITY           SKY/WX    TMP DP  RH WIND       PRES   REMARKS
FREDERICKSBRG* PTCLDY    61  59  92 S9        29.74F
STAFFORD*      PTCLDY    59  58  96 SE5       29.78F

$$

NCZ024-NYZ072-PAZ021-071-VAZ022-071-250900-
OTHER REGIONAL OBSERVATIONS

CITY           SKY/WX    TMP DP  RH WIND       PRES   REMARKS
NEW YORK CITY  CLOUDY    56  53  90 VRB3      29.84F
PHILADELPHIA   MOCLDY    57  54  89 S5        29.81F
PITTSBURGH     LGT RAIN  64  49  57 NW16G23   29.58R
ROANOKE        PTCLDY    60  51  72 SE9       29.75F
RICHMOND       PTCLDY    59  57  93 S8        29.77F
RALEIGH        PTCLDY    61  57  87 S6        29.79F

$$

ANZ530>537-250900-
MARINE OBSERVATIONS

STATION/POSITION TIME  TEMP    WIND        PRES
                       AIR SEA DIR/SP/G
                 (UTC) (F)     (DEG/KT/KT) (MB)
THOMAS PT LIGHT  0800   53 44  160/ 15/ 15   N/A
BALT KEY BRIDGE  0748   55     120/  5/  5 1007.8F
COVE POINT       0748   48     180/ 10/ 11 1009.1F
LEWISETTA        0748   60 49  210/  8/  9 1008.3F
SOLOMONS ISLAND  0748   57 46  190/ 11/ 13   N/A
PINEY POINT      0748          110/  7/  7   N/A

$$





USA.gov is the U.S. government's official web portal to all federal, state and local government web resources and services.